Time,TemperatureF,DewpointF,PressureIn,WindDirection,WindDirectionDegrees,WindSpeedMPH,WindSpeedGustMPH,Humidity,HourlyPrecipIn,Conditions,Clouds,dailyrainin,SoftwareType,DateUTC
2013-04-01 00:17:00,34.3,26.5,30.12,West,270,8.1,9.2,73,0.02,,,0.04,open2300-1.11,2013-04-01 05:17:00,
2013-04-01 01:17:00,32.7,25.3,30.15,NNE,22,5.8,9.8,74,0.00,,,0.04,open2300-1.11,2013-04-01 06:17:00,
2013-04-01 02:17:00,31.1,22.1,30.16,ENE,67,0.9,8.9,69,0.00,,,0.04,open2300-1.11,2013-04-01 07:17:00,
2013-04-01 04:17:00,28.0,19.2,30.20,ENE,67,0.0,5.4,69,0.00,,,0.04,open2300-1.11,2013-04-01 09:17:00,
2013-04-01 05:17:00,26.8,18.0,30.22,ENE,67,0.0,4.9,69,0.00,,,0.04,open2300-1.11,2013-04-01 10:17:00,
2013-04-01 06:17:00,25.5,16.4,30.25,ENE,67,0.0,1.1,68,0.00,,,0.04,open2300-1.11,2013-04-01 11:17:00,
2013-04-01 07:17:00,24.6,15.5,30.27,ENE,67,2.5,3.6,68,0.00,,,0.04,open2300-1.11,2013-04-01 12:17:00,
2013-04-01 08:17:00,25.5,16.0,30.28,ENE,67,0.0,6.5,67,0.00,,,0.04,open2300-1.11,2013-04-01 13:17:00,
2013-04-01 09:17:00,27.3,16.7,30.28,ENE,67,0.0,10.1,64,0.00,,,0.04,open2300-1.11,2013-04-01 14:17:00,
2013-04-01 10:17:00,30.7,18.1,30.30,ENE,67,0.0,0.0,59,0.00,,,0.04,open2300-1.11,2013-04-01 15:17:00,
2013-04-01 11:17:00,34.2,19.6,30.30,NE,45,5.6,8.9,55,0.00,,,0.04,open2300-1.11,2013-04-01 16:17:00,
2013-04-01 12:17:00,37.0,19.1,30.31,ENE,67,2.9,9.6,48,0.00,,,0.04,open2300-1.11,2013-04-01 17:17:00,
2013-04-01 13:17:00,40.8,19.4,30.30,North,0,0.0,8.5,42,0.00,,,0.04,open2300-1.11,2013-04-01 18:17:00,
2013-04-01 14:17:00,43.5,20.1,30.28,NNE,22,0.0,10.7,39,0.00,,,0.04,open2300-1.11,2013-04-01 19:17:00,
2013-04-01 15:17:00,48.7,22.1,30.27,ENE,67,0.0,8.5,35,0.00,,,0.04,open2300-1.11,2013-04-01 20:17:00,
2013-04-01 16:17:00,50.7,21.8,30.25,WSW,247,0.0,0.0,32,0.00,,,0.04,open2300-1.11,2013-04-01 21:17:00,
2013-04-01 17:17:00,48.9,19.6,30.23,NW,315,0.0,8.7,31,0.00,,,0.04,open2300-1.11,2013-04-01 22:17:00,
2013-04-01 19:17:00,49.3,19.9,30.22,North,0,0.0,0.0,31,0.00,,,0.04,open2300-1.11,2013-04-02 00:17:00,
2013-04-01 20:17:00,40.8,14.4,30.23,NNE,22,0.0,0.0,34,0.00,,,0.04,open2300-1.11,2013-04-02 01:17:00,
2013-04-01 21:17:00,36.7,13.3,30.25,NE,45,0.0,0.0,38,0.00,,,0.04,open2300-1.11,2013-04-02 02:17:00,
2013-04-01 22:17:00,34.3,13.5,30.27,ENE,67,0.0,0.0,42,0.00,,,0.04,open2300-1.11,2013-04-02 03:17:00,
2013-04-01 23:17:00,31.8,12.2,30.27,ENE,67,0.0,0.0,44,0.00,,,0.00,open2300-1.11,2013-04-02 04:17:00,